Jaffrey, NH

1:11 PM EDT on August 21, 2017 (GMT -0400)
Jaffrey Airport-Silver Ranch

Weather History for KAFN - May, 2013

Change the Weather History Date:

Wednesday, May 1, 2013

  Actual Average Record
Temperature  
Mean Temperature 52 °F -  
Max Temperature 71 °F 60 °F 84 °F (2001)
Min Temperature 33 °F 36 °F 25 °F (2008)
Degree Days  
Heating Degree Days 13    
Growing Degree Days 2 (Base 50)    
Moisture  
Dew Point 29 °F    
Average Humidity 47    
Maximum Humidity 89    
Minimum Humidity 17    
Precipitation  
Precipitation 0.00 in - - ()
Sea Level Pressure  
Sea Level Pressure 30.45 in    
Wind  
Wind Speed 2 mph (SSE)    
Max Wind Speed 9 mph    
Max Gust Speed -    
Visibility 10 miles    
Events      
Averages and records for this station are not official NWS values.
T = Trace of Precipitation, MM = Missing Value Source: NWS Daily Summary

Daily Weather History Graph

Daily Weather History Graph

Search for Another Location

Airport or City:

Trip Planner

Search our weather history database for the weather conditions in past years. The results will help you decide how hot, cold, wet, or windy it might be!

Date:

Astronomy

May. 01, 2013 Rise Set
Actual Time 5:41 AM EDT 7:48 PM EDT
Civil Twilight 5:11 AM EDT 8:19 PM EDT
Nautical Twilight 4:33 AM EDT 8:58 PM EDT
Astronomical Twilight 3:51 AM EDT 9:40 PM EDT
Moon 12:56 AM EDT (5/1) 11:16 AM EDT (5/1)
Length of Visible Light 15h 08m
Length of Day
14h 06m
Waning Gibbous, 59% of the Moon is Illuminated
May 1
Waning Gibbous
May 2
Last Quarter
May 9
New
May 18
First Quarter
May 25
Full

Hourly Weather History & Observations

Time (EDT) Temp. Dew Point Humidity Pressure Visibility Wind Dir Wind Speed Gust Speed Precip Events Conditions
12:52 AM 41.0 °F 32.0 °F 70% 30.39 in 10.0 mi Calm Calm - N/A   Clear
1:52 AM 39.0 °F 30.0 °F 70% 30.40 in 10.0 mi Calm Calm - N/A   Clear
2:52 AM 37.0 °F 30.9 °F 79% 30.41 in 10.0 mi Calm Calm - N/A   Clear
3:52 AM 36.0 °F 30.9 °F 82% 30.43 in 10.0 mi Calm Calm - N/A   Clear
4:52 AM 34.0 °F 30.0 °F 85% 30.44 in 10.0 mi Calm Calm - N/A   Clear
5:52 AM 33.1 °F 30.0 °F 89% 30.45 in 10.0 mi Calm Calm - N/A   Clear
6:52 AM 34.0 °F 30.9 °F 89% 30.46 in 10.0 mi Calm Calm - N/A   Clear
7:52 AM 44.1 °F 34.0 °F 68% 30.48 in 10.0 mi Calm Calm - N/A   Clear
8:52 AM 55.9 °F 28.9 °F 36% 30.48 in 10.0 mi Calm Calm - N/A   Clear
9:52 AM 61.0 °F 21.0 °F 21% 30.49 in 10.0 mi Variable 3.5 mph - N/A   Clear
10:52 AM 64.0 °F 21.9 °F 20% 30.48 in 10.0 mi Calm Calm - N/A   Clear
11:52 AM 66.0 °F 21.0 °F 18% 30.47 in 10.0 mi Variable 4.6 mph - N/A   Clear
12:52 PM 68.0 °F 21.9 °F 17% 30.45 in 10.0 mi SSE 8.1 mph - N/A   Clear
1:52 PM 70.0 °F 23.0 °F 17% 30.45 in 10.0 mi Variable 5.8 mph - N/A   Clear
2:52 PM 71.1 °F 24.1 °F 17% 30.44 in 10.0 mi Variable 6.9 mph - N/A   Clear
3:52 PM 71.1 °F 25.0 °F 18% 30.44 in 10.0 mi South 9.2 mph - N/A   Clear
4:52 PM 71.1 °F 26.1 °F 19% 30.44 in 10.0 mi Variable 4.6 mph - N/A   Clear
5:52 PM 69.1 °F 28.9 °F 22% 30.45 in 10.0 mi Variable 5.8 mph - N/A   Clear
6:52 PM 66.0 °F 30.0 °F 26% 30.46 in 10.0 mi SE 3.5 mph - N/A   Clear
7:52 PM 61.0 °F 30.9 °F 32% 30.47 in 10.0 mi SSE 3.5 mph - N/A   Clear
8:52 PM 55.0 °F 33.1 °F 43% 30.48 in 10.0 mi South 3.5 mph - N/A   Clear
9:52 PM 50.0 °F 35.1 °F 57% 30.49 in 10.0 mi Calm Calm - N/A   Clear
10:52 PM 46.9 °F 35.1 °F 63% 30.49 in 10.0 mi Calm Calm - N/A   Clear
11:52 PM 44.1 °F 35.1 °F 71% 30.48 in 10.0 mi Calm Calm - N/A   Clear